Flag for U.S.A. Weather past 2 weeks in St. Croix Falls, Wisconsin, U.S.A.

Now
57 °F

Clear.


Feels Like: 57 °F
Forecast: 56 / 76 °F
Wind: No wind

Location: L O Simenstad Municipal Airport

Current Time: Sep 3, 2014 at 12:45:30 AM

Latest Report: Sep 3, 2014 at 12:15 AM


Visibility: 10 mi

Pressure: 29.90 "Hg

Humidity: 99%

Dew point: 56 °F

Location of St. Croix FallsLocation

Historic Weather in St. Croix Falls — Graph

°F

St. Croix Falls temperature yesterday

Maximum temperature yesterday: 76 °F (at 4:35 PM)
Minimum temperature yesterday: 56 °F (at 6:55 AM)
Average temperature yesterday: 65 °F

Past Weeks' High & Low Weather Summary

 TemperatureHumidityPressure
High84 °F (Aug 24, 3:55 PM)100% (Aug 18, 11:15 PM)30.26 "Hg (Aug 18, 11:15 PM)
Low55 °F (Aug 26, 6:55 AM)39% (Sep 2, 3:55 PM)29.64 "Hg (Aug 31, 7:55 PM)
Average68 °F87%29.92 "Hg
* Reported Aug 18 11:15 PM — Sep 2 11:15 PM, St. Croix Falls, Weather by CustomWeather, © 2014

Note: Actual official high and low records may vary slightly from our data, if they occured in-between our weather recording intervals... More about our weather records

Advertising

St. Croix Falls weather history for previous 24 hours

 ConditionsComfort  
Time TempWeatherWind HumidityBarometerVisibility
11:15 PM
Sep 2
60 °FClear.No wind83%29.90 "Hg10 mi
10:55 PM60 °FClear.No wind82%29.90 "Hg10 mi
10:35 PM60 °FClear.No wind82%29.90 "Hg10 mi
10:15 PM60 °FClear.6 mph83%29.89 "Hg10 mi
9:55 PM60 °FClear.3 mph84%29.89 "Hg10 mi
9:35 PM59 °FClear.3 mph85%29.90 "Hg10 mi
9:15 PM60 °FClear.5 mph84%29.89 "Hg10 mi
8:55 PM61 °FClear.3 mph80%29.89 "Hg10 mi
8:15 PM64 °FSunny.No wind75%29.89 "Hg10 mi
7:55 PM64 °FSunny.No wind79%29.89 "Hg10 mi
7:15 PM70 °FSunny.No wind58%29.88 "Hg10 mi
6:55 PM72 °FSunny.6 mph51%29.89 "Hg10 mi
6:35 PM74 °FSunny.6 mph49%29.89 "Hg10 mi
6:15 PM74 °FSunny.6 mph47%29.90 "Hg10 mi
5:55 PM75 °FSunny.7 mph42%29.90 "Hg10 mi
5:15 PM76 °FSunny.9 mph40%29.91 "Hg10 mi
4:55 PM76 °FSunny.12 mph39%29.90 "Hg10 mi
4:35 PM76 °FSunny.8 mph39%29.90 "Hg10 mi
4:15 PM76 °FSunny.8 mph43%29.90 "Hg10 mi
3:55 PM76 °FSunny.7 mph39%29.91 "Hg10 mi
3:35 PM76 °FSunny.12 mph42%29.91 "Hg10 mi
3:15 PM76 °FSunny.9 mph44%29.91 "Hg10 mi
2:55 PM76 °FSunny.8 mph46%29.91 "Hg10 mi
2:35 PM75 °FSunny.7 mph47%29.92 "Hg10 mi
1:55 PM74 °FSunny.9 mph48%29.91 "Hg10 mi
1:35 PM74 °FSunny.9 mph48%29.91 "Hg10 mi
1:15 PM74 °FSunny.9 mph49%29.91 "Hg10 mi
12:55 PM74 °FScattered clouds.9 mph52%29.92 "Hg10 mi
12:35 PM73 °FScattered clouds.5 mph56%29.92 "Hg10 mi
12:15 PM72 °FSunny.6 mph57%29.92 "Hg10 mi
11:55 AM71 °FSunny.3 mph56%29.92 "Hg10 mi
11:35 AM70 °FSunny.No wind61%29.92 "Hg10 mi
11:15 AM70 °FSunny.No wind63%29.92 "Hg10 mi
10:55 AM69 °FSunny.No wind66%29.92 "Hg10 mi
10:35 AM68 °FSunny.5 mph70%29.92 "Hg10 mi
10:15 AM67 °FSunny.5 mph73%29.92 "Hg10 mi
9:55 AM66 °FSunny.No wind78%29.92 "Hg10 mi
9:35 AM65 °FSunny.No wind76%29.91 "Hg10 mi
9:15 AM64 °FSunny.5 mph87%29.91 "Hg10 mi
8:55 AM64 °FSunny.No wind92%29.91 "Hg10 mi
8:15 AM59 °FSunny.No wind100%29.90 "Hg10 mi
7:55 AM58 °FSunny.No wind100%29.90 "Hg10 mi
7:35 AM58 °FSunny.No wind100%29.90 "Hg10 mi
7:15 AM56 °FClear.No wind100%29.89 "Hg10 mi
6:55 AM56 °FClear.No wind100%29.88 "Hg7 mi
6:35 AM56 °FClear.No wind100%29.88 "Hg7 mi
6:15 AM58 °FClear.No wind100%29.87 "Hg10 mi
5:55 AM57 °FClear.No wind100%29.87 "Hg10 mi
5:15 AM59 °FClear.No wind100%29.87 "Hg10 mi
4:55 AM60 °FPassing clouds.3 mph100%29.87 "Hg10 mi
4:35 AM59 °FPartly cloudy.3 mph100%29.86 "Hg10 mi
4:15 AM58 °FPartly cloudy.No wind100%29.84 "Hg10 mi
3:55 AM58 °FPassing clouds.No wind100%29.84 "Hg10 mi
3:35 AM58 °FPartly cloudy.No wind100%29.84 "Hg10 mi
3:15 AM58 °FPassing clouds.No wind100%29.84 "Hg10 mi
2:55 AM58 °FPartly cloudy.No wind100%29.83 "Hg10 mi
2:35 AM58 °FPassing clouds.No wind100%29.84 "Hg10 mi
2:15 AM58 °FPassing clouds.3 mph100%29.83 "Hg10 mi
1:55 AM58 °FPassing clouds.No wind100%29.84 "Hg10 mi
1:35 AM58 °FClear.No wind100%29.84 "Hg10 mi
1:15 AM58 °FClear.No wind100%29.84 "Hg10 mi
12:55 AM58 °FClear.No wind100%29.84 "Hg10 mi
12:15 AM59 °FPassing clouds.5 mph100%29.83 "Hg10 mi
Weather by CustomWeather, © 2014

See weather overviewHow to use our weather pages